[[{"header":{"parameterUnit":"m.s-1","parameterCategory":1,"la1":30.2991,"la2":30.254,"lo1":-89.0895,"lo2":-89.0444,"dy":0.0017,"dx":0.0017,"nx":28,"ny":28,"refTime":"2025-05-15T21:00:00:Z","depth":0,"parameterNumber":2,"parameterNumberName":"U-component_of_WINDS"},"data":[0,0,0,0,0,0,0,0,0,0,0,0,0,0,0,0,0,0,0,0,0,0,0,0,0,0,0,0,0,0,0,0,0,0,0,0,0,0,0,0,0,0,0,0,0,0,0,0,0,0,0,0,0,0,0,0,0,0,0.6991,0.6991,0,0.6969,0.6969,0.6969,0.6919,0.6918,0.6917,0.6916,0.6895,0.6896,0.6896,0,0,0,0,0,0,0,0,0,0,0,0,0,0.6991,0.6991,0.6991,0.6991,0.6991,0.6969,0.6969,0.6969,0.6919,0.6918,0.6916,0.6915,0.6895,0.6896,0.6896,0,0,0,0,0,0,0,0,0,0,0,0,0,0.6983,0.6991,0.6991,0.6963,0.696,0.697,0.6969,0.6969,0.6919,0.6917,0.6916,0.6914,0.6895,0.6896,0.6896,0.6932,0,0,0.6898,0.6899,0,0,0,0,0,0,0,0,0.6983,0.6983,0.6967,0.6965,0.6962,0.6945,0.6962,0.6957,0.6919,0.6935,0.6915,0.6914,0.6913,0.6912,0.6912,0.6931,0.693,0.6898,0.6899,0.6899,0.6899,0,0,0,0,0,0,0,0.6984,0.6983,0.6983,0.6967,0.6964,0.6952,0.6949,0.6961,0.6933,0.6933,0.693,0.6928,0.6912,0.6911,0.6911,0.693,0.6898,0.6899,0.6899,0.69,0.6977,0.6979,0,0,0,0,0,0,0.6988,0.6984,0.6983,0.6982,0.6969,0.6953,0.695,0.6952,0.6933,0.6928,0.6929,0.6925,0.6911,0.691,0.691,0.695,0.6899,0.69,0.69,0.6976,0.6978,0.6979,0,0,0,0,0,0,0.6988,0.6988,0.6984,0.6982,0.698,0.6955,0.6958,0.6953,0.6952,0.693,0.6925,0.6934,0.691,0.6909,0.6927,0.6949,0.69,0.6901,0.6974,0.6976,0.6979,0.7032,0,0,0,0,0,0,0.6988,0.6989,0.7002,0.6983,0.6981,0.7001,0.6959,0.6953,0.6953,0.6948,0.6933,0.6929,0.6908,0.6926,0.6927,0.6949,0.6901,0.6972,0.6975,0.6978,0.7028,0.7036,0.7042,0,0,0,0,0,0.6989,0.7018,0.7003,0.7003,0.6996,0.7002,0.7001,0.6977,0.6955,0.6968,0.6954,0.6929,0.6946,0.6928,0.6929,0.6952,0.697,0.6974,0.6978,0.7024,0.7034,0.7042,0,0,0,0,0,0,0.7041,0.7015,0.6998,0.7021,0.7014,0.6994,0.7009,0.6988,0.6987,0.6982,0.6953,0.695,0.6972,0.6963,0.6943,0.6985,0.6954,0.6958,0.699,0.6999,0.7006,0.7007,0.6902,0,0,0,0,0,0.7055,0.7061,0.7038,0.7062,0.7059,0.7035,0.7036,0.7018,0.701,0.7007,0.6994,0.6987,0.6991,0.6994,0.6997,0.7026,0.7022,0.7042,0.705,0.7056,0.706,0.7075,0.7084,0.6992,0.6992,0.6992,0,0,0.7084,0.7071,0.7077,0.7072,0.7064,0.7072,0.7033,0.7043,0.7048,0.7009,0.7024,0.7015,0.7005,0.7029,0.7039,0.7023,0.7084,0.706,0.7066,0.7066,0.708,0.7088,0.7096,0.6994,0.6994,0.6993,0,0,0.7142,0.7132,0.715,0.7144,0.7132,0.7116,0.7121,0.7103,0.7095,0.711,0.7081,0.7088,0.7095,0.7089,0.7088,0.7144,0.7121,0.7146,0.7184,0.7199,0.7206,0.7212,0.7233,0.724,0.715,0.715,0.715,0,0.718,0.719,0.7163,0.7174,0.7173,0.7137,0.7156,0.7151,0.7141,0.7142,0.7124,0.7132,0.7124,0.7146,0.716,0.7159,0.7164,0.7147,0.7207,0.7213,0.7219,0.7238,0.7245,0.7153,0.7152,0.7152,0.7152,0,0.7237,0.7245,0.7261,0.7252,0.7253,0.7268,0.7244,0.7248,0.723,0.7216,0.7232,0.7221,0.722,0.7224,0.7207,0.7244,0.7234,0.7212,0.7181,0.7231,0.7248,0.7255,0.7157,0.7156,0.7155,0.7154,0,0,0.7327,0.7303,0.7309,0.7305,0.729,0.7295,0.7309,0.7308,0.7312,0.7307,0.7319,0.7326,0.7305,0.7304,0.7285,0.7299,0.7344,0.7275,0.7275,0.7289,0.7385,0.7401,0.741,0.7329,0.7331,0.7332,0.7386,0,0.738,0.7402,0.7378,0.7405,0.7412,0.7378,0.739,0.7383,0.7371,0.7375,0.7361,0.7367,0.734,0.7338,0.735,0.7336,0.7363,0.7332,0.734,0.7341,0.7343,0.7419,0.7436,0.7488,0.7392,0.7393,0.7394,0,0.7446,0.7443,0.7471,0.7454,0.7456,0.7468,0.7465,0.7469,0.7461,0.7451,0.7449,0.7427,0.744,0.741,0.7428,0.7407,0.7409,0.7403,0.7404,0.7404,0.737,0.7421,0.7504,0.7511,0.7405,0.7404,0.7403,0,0.7508,0.7512,0.7528,0.7526,0.7507,0.7516,0.7509,0.7498,0.7499,0.7497,0.7498,0.7498,0.7498,0.7498,0.7477,0.7457,0.7498,0.7466,0.7491,0.7491,0.7501,0.75,0.7585,0.7502,0.7502,0.7502,0.7502,0,0.757,0.7588,0.7556,0.7566,0.7586,0.7559,0.7579,0.7569,0.756,0.7568,0.7539,0.7548,0.752,0.7525,0.7509,0.7527,0.7527,0.752,0.7515,0.7522,0.7523,0.7523,0.7518,0.7504,0.7504,0.7503,0.7503,0,0.7643,0.7622,0.7638,0.7619,0.7615,0.763,0.7614,0.7623,0.7609,0.762,0.7621,0.7599,0.7604,0.7583,0.7585,0.7574,0.76,0.759,0.7603,0.76,0.7626,0.7624,0.7713,0.7723,0.7635,0.7636,0.7636,0,0.7684,0.7697,0.7679,0.7682,0.7676,0.7682,0.7683,0.7657,0.7659,0.7651,0.7661,0.7664,0.7665,0.7675,0.766,0.7661,0.7651,0.7682,0.7651,0.7657,0.7651,0.765,0.7651,0.7688,0.7689,0.769,0.7691,0,0.7758,0.7747,0.7749,0.7748,0.7749,0.7747,0.7743,0.7747,0.772,0.7724,0.7729,0.7729,0.7731,0.7735,0.7733,0.7726,0.7704,0.7701,0.7707,0.7714,0.7721,0.7717,0.7621,0.7699,0.7698,0.7698,0.7697,0.7697,0.7816,0.7826,0.7815,0.7818,0.7813,0.781,0.7817,0.7804,0.7807,0.7806,0.7791,0.7799,0.7791,0.7786,0.7782,0.7788,0.7774,0.7782,0.7784,0.7787,0.7791,0.772,0.7788,0.7788,0.7787,0.7787,0.7787,0,0.7889,0.788,0.7884,0.7879,0.7881,0.786,0.7855,0.7858,0.7866,0.7859,0.7861,0.7867,0.787,0.7855,0.7856,0.7864,0.7854,0.7866,0.7865,0.7863,0.7804,0.7799,0.7874,0.7874,0.7874,0.7874,0.7874,0.7874,0.7927,0.7943,0.7931,0.7944,0.7936,0.7943,0.7941,0.7939,0.7933,0.7941,0.7944,0.7934,0.7924,0.7925,0.7927,0.7923,0.7925,0.7939,0.7931,0.7876,0.7868,0.786,0.7854,0.794,0.794,0.799,0.7991,0.7991]},{"header":{"parameterUnit":"m.s-1","parameterCategory":1,"la1":30.2991,"la2":30.254,"lo1":-89.0895,"lo2":-89.0444,"dy":0.0017,"dx":0.0017,"nx":28,"ny":28,"refTime":"2025-05-15T21:00:00:Z","depth":0,"parameterNumber":3,"parameterNumberName":"V-component_of_WINDS"},"data":[0,0,0,0,0,0,0,0,0,0,0,0,0,0,0,0,0,0,0,0,0,0,0,0,0,0,0,0,0,0,0,0,0,0,0,0,0,0,0,0,0,0,0,0,0,0,0,0,0,0,0,0,0,0,0,0,0,0,5.5816,5.5818,0,5.5974,5.5976,5.5978,5.5981,5.5979,5.5977,5.5975,5.6133,5.6139,5.6145,0,0,0,0,0,0,0,0,0,0,0,0,0,5.5513,5.5519,5.5816,5.5818,5.582,5.5974,5.5976,5.5978,5.5982,5.5979,5.5977,5.5975,5.6131,5.6138,5.6145,0,0,0,0,0,0,0,0,0,0,0,0,0,5.5655,5.5521,5.5816,5.584,5.5844,5.5974,5.5976,5.5979,5.5982,5.5979,5.5976,5.5973,5.6129,5.6138,5.6146,5.6261,0,0,5.6174,5.6178,0,0,0,0,0,0,0,0,5.5647,5.5667,5.5835,5.5839,5.5843,5.5955,5.5927,5.6073,5.5983,5.593,5.5975,5.5972,5.6076,5.6089,5.6125,5.6268,5.6275,5.6175,5.618,5.6184,5.6187,0,0,0,0,0,0,0,5.5638,5.566,5.5879,5.5837,5.5842,5.5842,5.5859,5.5955,5.6017,5.5934,5.5935,5.5953,5.6078,5.6116,5.6129,5.6277,5.6175,5.6183,5.6188,5.6192,5.6522,5.6526,0,0,0,0,0,0,5.5623,5.5652,5.5874,5.5883,5.5736,5.585,5.5869,5.5922,5.6016,5.6028,5.5956,5.5953,5.6102,5.6118,5.6134,5.6275,5.6184,5.6193,5.6198,5.6519,5.6523,5.6527,0,0,0,0,0,0,5.5617,5.5643,5.5867,5.5768,5.5796,5.5859,5.5918,5.5927,5.5966,5.6033,5.6043,5.5984,5.6101,5.6122,5.623,5.6281,5.6197,5.6205,5.6515,5.652,5.6525,5.6557,0,0,0,0,0,0,5.5608,5.5641,5.5686,5.5769,5.5802,5.5961,5.5921,5.5932,5.5982,5.5979,5.6062,5.6073,5.61,5.6216,5.6239,5.6292,5.6212,5.6511,5.6517,5.6523,5.6552,5.6563,5.6572,0,0,0,0,0,5.5597,5.5687,5.5688,5.5715,5.5859,5.5964,5.5983,5.6013,5.5986,5.6031,5.6074,5.607,5.6271,5.6227,5.6253,5.6309,5.6508,5.6516,5.6523,5.6547,5.6561,5.6572,0,0,0,0,0,0,5.5607,5.5699,5.57,5.582,5.5885,5.5965,5.6023,5.6026,5.6099,5.6093,5.6127,5.6145,5.6253,5.6292,5.6241,5.6425,5.6386,5.6399,5.6396,5.6409,5.6419,5.6408,5.6219,0,0,0,0,0,5.5624,5.5703,5.5778,5.5876,5.5908,5.596,5.6007,5.6025,5.6092,5.6119,5.617,5.6234,5.6312,5.6362,5.6438,5.6557,5.6575,5.6608,5.6618,5.6626,5.6637,5.6704,5.6719,5.6552,5.6552,5.6552,0,0,5.5658,5.5718,5.5765,5.588,5.5932,5.6012,5.5983,5.6068,5.6128,5.6131,5.6238,5.6277,5.6351,5.6466,5.6518,5.6501,5.6687,5.6636,5.6642,5.6649,5.6713,5.6729,5.6743,5.6557,5.6556,5.6555,0,0,5.5762,5.5815,5.5903,5.5956,5.6036,5.6069,5.609,5.617,5.6197,5.6304,5.6309,5.6379,5.6512,5.6565,5.6609,5.6733,5.6733,5.6756,5.6809,5.6874,5.6887,5.6899,5.6943,5.6959,5.6767,5.6767,5.6767,0,5.5794,5.5916,5.5947,5.6034,5.6084,5.6093,5.6182,5.6231,5.6331,5.6365,5.6344,5.6512,5.6562,5.6689,5.6719,5.6755,5.678,5.6748,5.6883,5.6895,5.6906,5.6949,5.6966,5.677,5.6769,5.6769,5.6769,0,5.5952,5.6036,5.6098,5.6195,5.6252,5.6339,5.6384,5.6437,5.645,5.6486,5.6594,5.6655,5.6743,5.6774,5.6787,5.6904,5.6891,5.6876,5.6838,5.6924,5.6965,5.6982,5.6773,5.6772,5.6771,5.6771,0,0,5.6066,5.6181,5.6203,5.6248,5.6336,5.6402,5.6489,5.6576,5.6622,5.669,5.6764,5.6876,5.6864,5.6914,5.6932,5.6989,5.7084,5.6967,5.697,5.6987,5.7217,5.7228,5.7246,5.7084,5.7087,5.709,5.7211,0,5.618,5.6338,5.6369,5.6505,5.6583,5.6592,5.6668,5.673,5.6765,5.6836,5.6874,5.6954,5.6931,5.6961,5.7018,5.706,5.713,5.7052,5.7152,5.7155,5.7135,5.7268,5.728,5.7391,5.7227,5.7229,5.7231,0,5.6334,5.6408,5.6552,5.6631,5.6665,5.6733,5.6816,5.6883,5.6953,5.6975,5.7032,5.7044,5.7134,5.7092,5.7216,5.7162,5.7205,5.7232,5.7237,5.7248,5.7199,5.7283,5.7427,5.7444,5.7257,5.7255,5.7253,0,5.6404,5.6539,5.6643,5.6681,5.6775,5.6823,5.6864,5.6931,5.6982,5.7054,5.7087,5.7168,5.7212,5.7274,5.7307,5.7273,5.743,5.7389,5.745,5.7449,5.7483,5.748,5.7637,5.7509,5.7509,5.7508,5.7508,0,5.6529,5.6617,5.6676,5.674,5.6839,5.6873,5.697,5.701,5.707,5.7141,5.7153,5.7219,5.726,5.7331,5.7358,5.7457,5.7477,5.7496,5.7503,5.7496,5.7494,5.7525,5.7518,5.7513,5.7512,5.7511,5.751,0,5.6624,5.6668,5.6782,5.6862,5.6884,5.6953,5.7021,5.7083,5.7119,5.7209,5.7232,5.7287,5.7372,5.7412,5.7517,5.7535,5.7648,5.7648,5.7625,5.7627,5.7686,5.768,5.7868,5.7895,5.7749,5.775,5.7751,0,5.6701,5.6769,5.6857,5.6907,5.695,5.7028,5.7081,5.7117,5.717,5.7256,5.7307,5.7393,5.7464,5.76,5.7649,5.7729,5.7732,5.7792,5.7744,5.7735,5.7734,5.773,5.7737,5.7801,5.7802,5.7804,5.7805,0,5.6833,5.6852,5.6927,5.7011,5.7073,5.714,5.7206,5.7245,5.7292,5.7351,5.744,5.7495,5.7603,5.7688,5.7772,5.7812,5.7817,5.7819,5.7838,5.7832,5.7816,5.7826,5.765,5.7815,5.7814,5.7813,5.7813,5.7812,5.6923,5.6984,5.7056,5.714,5.7193,5.7254,5.7317,5.7361,5.7436,5.7527,5.7543,5.7637,5.7705,5.7819,5.7862,5.7936,5.7921,5.7948,5.7955,5.7961,5.7965,5.7804,5.7951,5.795,5.795,5.795,5.795,0,5.7056,5.7103,5.718,5.7272,5.7338,5.7337,5.741,5.7465,5.7548,5.7612,5.7682,5.7783,5.7866,5.7921,5.8005,5.8053,5.8057,5.8073,5.8071,5.808,5.7972,5.7948,5.8069,5.8069,5.8069,5.8069,5.8069,5.8069,5.7134,5.7238,5.7264,5.7395,5.744,5.7534,5.7575,5.7632,5.7683,5.7796,5.7866,5.7902,5.7962,5.805,5.8126,5.814,5.8171,5.8188,5.8202,5.81,5.8087,5.8076,5.8054,5.8194,5.8194,5.8304,5.8305,5.8306]}]]